712  
ASUS42 KCAE 240110  
RWRCAE  
REGIONAL WEATHER ROUNDUP  
NATIONAL WEATHER SERVICE COLUMBIA SC  
800 PM EST SAT FEB 23 2019  
 
NOTE: "FAIR" INDICATES FEW OR NO CLOUDS BELOW 12,000 FEET WITH NO  
SIGNIFICANT WEATHER AND/OR S TO VISIBILITY
.  
 
NOT ALL STATIONS ARE QUALITY CONTROLLED BY THE NATIONAL  
WEATHER SERVICE. USE DATA WITH CAUTION...ESPECIALLY  
DEWPOINT OBSERVATIONS.  
 
SCZ001>056-GAZ040-063>065-077-240200-   
..UPSTATE SOUTH CAROLINA
 
 
 
CITY SKY/WX TMP DP RH WIND PRES REMARKS
 
ANDERSON CLOUDY 44 42 93 E8 30.11F  
LIBERTY CLOUDY 44 44 100 E3 30.10F FOG  
SPARTANBURG CLOUDY 41 41 100 CALM 30.13F  
CLEMSON CLOUDY 43 43 100 E5 30.11F FOG  
GREENVILLE CLOUDY 44 43 96 E5 30.11F FOG  
GREENWOOD CLOUDY 42 42 100 E8 30.13F FOG  
GREER CLOUDY 43 40 89 NE7 30.12F FOG  
ROCK HILL CLOUDY 42 42 100 CALM 30.14F  
CHESTER CLOUDY 41 41 100 CALM 30.15F  
LAURENS CLOUDY 43 43 100 E5 30.11F FOG  
 
   
..CENTRAL SOUTH CAROLINA
 
 
 
CITY SKY/WX TMP DP RH WIND PRES REMARKS
 
COLUMBIA APT CLOUDY 46 46 100 NE3 30.13F  
COLUMBIA OWENS CLOUDY 46 43 89 NE3 30.15F  
MCENTIRE ANGB CLOUDY 45 45 100 NE5 N/A  
ORANGEBURG CLOUDY 48 46 93 NE5 30.13S FOG  
SUMTER SHAW CLOUDY 45 45 99 NE6 30.14S  
NEWBERRY CLOUDY 43 43 100 NE5 30.16F FOG  
AIKEN CLOUDY 45 45 100 NE8 30.15F FOG  
BARNWELL CLOUDY 48 48 100 NE7 30.13R FOG  
MANNING CLOUDY 46 46 100 NE3 30.15R  
CAMDEN CLOUDY 43 43 100 NE5 30.15F FOG  
LANCASTER CLOUDY 41 41 100 CALM 30.15S  
WINNSBORO CLOUDY 43 43 100 NE5 30.14F FOG  
 
   
..EASTERN AND COASTAL SOUTH CAROLINA
 
 
 
CITY SKY/WX TMP DP RH WIND PRES REMARKS
 
MYRTLE BEACH CLOUDY 52 49 89 N8 30.15R  
N MYRTLE BCH CLOUDY 50 50 100 N7 30.13S  
CONWAY CLOUDY 46 46 100 N3 30.15S FOG  
MARION CLOUDY 45 45 100 NE5 30.15F FOG  
HARTSVILLE CLOUDY 41 41 100 NE3 30.14F FOG  
FLORENCE CLOUDY 46 45 96 N7 30.15S  
DARLINGTON CLOUDY 44 43 96 N5 30.15F FOG  
CHARLESTON APT CLOUDY 54 50 86 N6 30.12S  
MOUNT PLEASANT CLOUDY 57 54 88 CALM 30.12S  
BEAUFORT CLOUDY 59 58 96 N7 30.11R  
HILTON HEAD FOG 59 57 94 N5 30.11F VSB 1/4  
 
   
..EASTERN GEORGIA
 
 
 
CITY SKY/WX TMP DP RH WIND PRES REMARKS
 
AUGUSTA BUSH F CLOUDY 50 49 96 NE5 30.12S FOG  
AUGUSTA DANIEL CLOUDY 49 46 90 NE7 30.12F FOG  
THOMSON CLOUDY 46 46 99 SE7 30.16S FOG  
CLAXTON CLOUDY 64 63 94 E3 30.10R FOG  
SYLVANIA CLOUDY 56 56 98 E5 30.11S FOG  
STATESBORO CLOUDY 58 57 96 E3 30.10R FOG  
SAVANNAH CLOUDY 61 60 97 E5 30.10 FOG  
 
   
..SOUTHERN NORTH CAROLINA
 
 
 
CITY SKY/WX TMP DP RH WIND PRES REMARKS
 
CHARLOTTE CLOUDY 43 39 86 E3 30.14F  
MONROE CLOUDY 41 38 89 CALM 30.13F  
WADESBORO CLOUDY 42 40 92 CALM 30.15S  
ROCKINGHAM CLOUDY N/A N/A N/A SE6 30.13F  
RUTHERFORDTON CLOUDY 41 41 100 CALM 30.12F  
ASHEVILLE CLOUDY 42 40 92 S7 30.08F FOG  
 

 
 
 
CLICK HERE TO GO TO PREVIOUS BULLETINS.

The Nexlab SC Page
The Nexlab GA Page Main Text Page